{"data":{"norad_id":67361,"epoch":"2026-05-25T01:17:38.463360Z","epoch_age_seconds":64158,"freshness":"FRESH","line1":"1 67361U 26003AD  26145.05391740  .00011437  00000+0  42435-3 0  9997","line2":"2 67361  42.9946 155.7265 0001057 304.6611  55.4141 15.27589612 20507","mean_motion":15.27589612,"eccentricity":0.0001057,"inclination_deg":42.9946,"raan_deg":155.7265,"arg_perigee_deg":304.6611,"mean_anomaly_deg":55.4141,"bstar":0.00042435,"rev_number":2050,"period_min":94.266155562205,"perigee_km":482.29509007654,"apogee_km":483.74553873281,"semimajor_km":6861.1573144047,"source":"CELESTRAK","updated_at":"2026-05-25T13:38:21.550419Z"}}